GW6217 Weather Reports


time (UTC)temp
F
wind
direction
speed
knots
gust
knots
rain 1hr
in
rain 24hr
in
rain mn
in
humidity
%
barometer
mb
20260510191512 70 117 0.9 9.6 0.00 0.00 0.00 49 1020.5
20260510190015 69 181 4.3 12.2 0.00 0.00 0.00 48 1020.7
20260510184528 69 105 1.7 8.7 0.00 0.00 0.00 50 1020.6
20260510183004 68 93 1.7 8.7 0.00 0.00 0.00 49 1020.3
20260510181508 68 165 3.5 10.4 0.00 0.00 0.00 49 1020.4
20260510180018 67 133 3.5 10.4 0.00 0.00 0.00 52 1020.1
20260510174503 67 226 6.1 12.2 0.00 0.00 0.00 49 1020.2
20260510173002 67 262 4.3 10.4 0.00 0.00 0.00 50 1020.2
20260510171505 67 92 2.6 9.6 0.00 0.00 0.00 52 1020.1
20260510170011 66 120 3.5 8.7 0.00 0.00 0.00 56 1019.9
20260510164517 65 231 5.2 12.2 0.00 0.00 0.00 53 1020.1
20260510163005 65 233 4.3 11.3 0.00 0.00 0.00 55 1020.0
20260510161506 64 219 3.5 10.4 0.00 0.00 0.00 55 1019.7
20260510160009 64 108 1.7 9.6 0.00 0.00 0.00 55 1019.6
20260510154513 63 196 3.5 11.3 0.00 0.00 0.00 55 1019.4
20260510153019 63 224 4.3 11.3 0.00 0.00 0.00 61 1019.4
20260510151505 63 234 6.1 14.8 0.00 0.00 0.00 60 1019.6
20260510150006 63 143 6.1 12.2 0.00 0.00 0.00 60 1019.7
20260510144515 62 163 4.3 12.2 0.00 0.00 0.00 64 1019.7
20260510143024 62 129 4.3 13.9 0.00 0.00 0.00 66 1019.4
20260510141522 61 214 7.8 13.0 0.00 0.00 0.00 65 1019.1
20260510140003 62 236 6.1 11.3 0.00 0.00 0.00 70 1018.9
20260510134509 62 200 4.3 10.4 0.00 0.00 0.00 70 1018.7
20260510133017 62 191 2.6 7.8 0.00 0.00 0.00 75 1018.5
20260510131517 61 238 3.5 11.3 0.00 0.00 0.00 77 1018.2
20260510130026 60 207 2.6 8.7 0.00 0.00 0.00 78 1017.8
20260510124504 59 209 2.6 7.8 0.00 0.00 0.00 80 1017.6
20260510123009 59 227 3.5 7.8 0.00 0.00 0.00 81 1017.4
20260510121515 58 115 3.5 7.0 0.00 0.00 0.00 82 1017.4
20260510120021 57 198 1.7 4.3 0.00 0.00 0.00 83 1017.3
20260510114526 57 207 1.7 3.5 0.00 0.00 0.00 82 1016.8
20260510113008 57 231 2.6 5.2 0.00 0.00 0.00 82 1016.5
20260510111511 57 101 0.9 2.6 0.00 0.00 0.00 84 1016.3
20260510110031 58 147 0.9 1.7 0.00 0.00 0.00 84 1015.9
20260510104524 58 176 1.7 3.5 0.00 0.00 0.00 83 1016.1
20260510103028 58 174 0.9 4.3 0.00 0.00 0.00 83 1016.0
20260510101508 57 131 0.0 3.5 0.00 0.00 0.00 84 1015.8
20260510100016 54 80 0.0 0.0 0.00 0.00 0.00 88 1015.4
20260510094519 54 80 0.0 0.0 0.00 0.00 0.00 88 1015.4
20260510093004 54 80 0.0 0.0 0.00 0.00 0.00 88 1015.1
20260510091509 54 80 0.0 0.0 0.00 0.00 0.00 88 1015.2
20260510090019 54 80 0.0 0.0 0.00 0.00 0.00 87 1014.9
20260510084505 54 80 0.0 0.0 0.00 0.00 0.00 87 1014.5
20260510083005 54 80 0.0 0.0 0.00 0.00 0.00 87 1014.4
20260510081504 54 80 0.0 0.0 0.00 0.01 0.00 87 1014.7
20260510080010 54 80 0.0 0.0 0.00 0.01 0.00 87 1014.7
20260510074514 54 80 0.0 0.0 0.00 0.01 0.00 86 1014.5
20260510073004 53 80 0.0 0.9 0.00 0.01 0.00 87 1014.5
20260510071506 53 80 0.0 0.9 0.00 0.01 0.00 87 1014.6
20260510070004 54 80 0.0 0.9 0.00 0.01 0.00 86 1014.5
20260510064511 54 80 0.0 0.9 0.00 0.01 0.00 85 1014.6
20260510063016 55 80 0.0 1.7 0.00 0.01 0.00 84 1014.5
20260510061505 56 109 0.0 0.0 0.00 0.01 0.00 81 1014.4
20260510060005 57 109 0.0 0.9 0.00 0.01 0.00 82 1014.6
20260510054511 58 109 0.0 0.0 0.00 0.01 0.00 80 1014.5
20260510053015 58 109 0.0 3.5 0.00 0.01 0.00 79 1014.8
20260510051520 54 95 0.9 1.7 0.00 0.01 0.00 87 1014.2
20260510050005 54 95 0.0 0.9 0.00 0.01 0.00 87 1013.8
20260510044505 54 95 0.0 0.0 0.00 0.01 0.01 87 1013.8
20260510043010 54 95 0.0 0.0 0.00 0.01 0.01 86 1013.7
20260510041519 54 95 0.0 0.0 0.00 0.01 0.01 86 1013.3
20260510040020 55 95 0.0 0.9 0.00 0.01 0.01 85 1013.3
20260510034505 55 95 0.0 0.9 0.00 0.01 0.01 85 1013.4
20260510033007 56 95 0.0 0.0 0.00 0.01 0.01 85 1013.2
20260510031514 57 95 0.0 0.9 0.00 0.01 0.01 84 1013.3
20260510030033 57 95 0.0 0.9 0.00 0.01 0.01 83 1013.1
20260510024525 58 95 0.0 0.0 0.00 0.01 0.01 82 1012.8
20260510023006 59 95 0.0 0.9 0.00 0.01 0.01 80 1012.2
20260510021515 60 95 0.0 0.0 0.00 0.01 0.01 78 1012.2
20260510020021 62 95 0.0 0.0 0.00 0.01 0.01 77 1011.9
20260510014522 63 95 0.0 0.9 0.00 0.01 0.01 72 1011.6
20260510013025 65 95 0.0 0.9 0.00 0.01 0.01 71 1011.4
20260510011511 68 95 0.0 0.9 0.00 0.01 0.01 68 1011.2
20260510010014 70 95 0.0 0.0 0.00 0.01 0.01 63 1011.0
20260510004518 75 95 0.0 0.0 0.00 0.01 0.01 55 1010.9
20260510003016 75 95 0.0 0.0 0.00 0.01 0.01 54 1010.8
20260510001504 78 95 0.0 0.9 0.00 0.01 0.01 48 1010.8
20260510000009 79 95 0.0 0.0 0.00 0.01 0.01 41 1010.7
20260509234503 80 95 0.0 0.9 0.00 0.01 0.01 41 1010.7
20260509233003 80 95 0.9 3.5 0.00 0.01 0.01 38 1010.7
20260509231505 80 81 0.9 2.6 0.00 0.01 0.01 36 1010.7
20260509230011 81 73 2.6 4.3 0.00 0.01 0.01 35 1010.6
20260509224511 81 88 2.6 5.2 0.00 0.01 0.01 37 1010.6
20260509223004 81 37 1.7 5.2 0.00 0.01 0.01 32 1010.7
20260509221503 81 106 2.6 5.2 0.00 0.01 0.01 35 1010.7
20260509220004 81 103 0.9 3.5 0.00 0.01 0.01 36 1010.6
20260509214508 80 104 0.9 4.3 0.00 0.01 0.01 39 1010.7
20260509213014 81 110 0.0 3.5 0.00 0.01 0.01 41 1010.6
20260509211505 80 107 1.7 7.8 0.00 0.01 0.01 36 1010.7
20260509210004 80 122 0.9 7.0 0.00 0.01 0.01 36 1010.9
20260509204508 79 106 1.7 6.1 0.00 0.01 0.01 34 1011.0
20260509203017 80 102 1.7 5.2 0.00 0.01 0.01 39 1011.2
20260509201518 79 112 4.3 9.6 0.00 0.01 0.01 38 1011.4
20260509200004 79 100 2.6 9.6 0.00 0.01 0.01 38 1011.5
20260509194503 79 60 2.6 7.0 0.00 0.01 0.01 40 1011.6
20260509193008 79 103 1.7 6.1 0.00 0.01 0.01 42 1011.5